Year,Month,Day,Hour,Minute,Value (Times are PST for temperature in C)
2016,06,17,00,00,12.10
2016,06,17,00,01,12.10
2016,06,17,00,02,12.00
2016,06,17,00,03,12.00
2016,06,17,00,04,12.00
2016,06,17,00,05,11.90
2016,06,17,00,06,11.90
2016,06,17,00,07,11.90
2016,06,17,00,08,11.90
2016,06,17,00,09,11.90
2016,06,17,00,10,11.90
2016,06,17,00,11,11.80
2016,06,17,00,12,11.80
2016,06,17,00,13,11.80
2016,06,17,00,14,11.80
2016,06,17,00,15,11.70
2016,06,17,00,16,11.70
2016,06,17,00,17,11.60
2016,06,17,00,18,11.60
2016,06,17,00,19,11.60
2016,06,17,00,20,11.60
2016,06,17,00,21,11.50
2016,06,17,00,22,11.50
2016,06,17,00,23,11.40
2016,06,17,00,24,11.40
2016,06,17,00,25,11.40
2016,06,17,00,26,11.30
2016,06,17,00,27,11.30
2016,06,17,00,28,11.30
2016,06,17,00,29,11.30
2016,06,17,00,30,11.20
2016,06,17,00,31,11.20
2016,06,17,00,32,11.20
2016,06,17,00,33,11.10
2016,06,17,00,34,11.10
2016,06,17,00,35,11.10
2016,06,17,00,36,11.10
2016,06,17,00,37,11.10
2016,06,17,00,38,11.00
2016,06,17,00,39,11.00
2016,06,17,00,40,10.90
2016,06,17,00,41,10.90
2016,06,17,00,42,10.90
2016,06,17,00,43,10.80
2016,06,17,00,44,10.80
2016,06,17,00,45,10.80
2016,06,17,00,46,10.70
2016,06,17,00,47,10.70
2016,06,17,00,48,10.60
2016,06,17,00,49,10.60
2016,06,17,00,50,10.50
2016,06,17,00,51,10.40
2016,06,17,00,52,10.30
2016,06,17,00,53,10.30
2016,06,17,00,54,10.20
2016,06,17,00,55,10.20
2016,06,17,00,56,10.20
2016,06,17,00,57,10.20
2016,06,17,00,58,10.20
2016,06,17,00,59,10.20
2016,06,17,01,00,10.20
2016,06,17,01,01,10.10
2016,06,17,01,02,10.10
2016,06,17,01,03,10.10
2016,06,17,01,04,10.10
2016,06,17,01,05,10.10
2016,06,17,01,06,10.10
2016,06,17,01,07,10.10
2016,06,17,01,08,10.00
2016,06,17,01,09,10.00
2016,06,17,01,10,10.00
2016,06,17,01,11,9.90
2016,06,17,01,12,9.90
2016,06,17,01,13,9.90
2016,06,17,01,14,9.90
2016,06,17,01,15,9.80
2016,06,17,01,16,9.80
2016,06,17,01,17,9.80
2016,06,17,01,18,9.80
2016,06,17,01,19,9.70
2016,06,17,01,20,9.70
2016,06,17,01,21,9.70
2016,06,17,01,22,9.80
2016,06,17,01,23,9.80
2016,06,17,01,24,9.80
2016,06,17,01,25,9.80
2016,06,17,01,26,9.80
2016,06,17,01,27,9.80
2016,06,17,01,28,9.80
2016,06,17,01,29,9.80
2016,06,17,01,30,9.80
2016,06,17,01,31,9.80
2016,06,17,01,32,9.80
2016,06,17,01,33,9.70
2016,06,17,01,34,9.70
2016,06,17,01,35,9.60
2016,06,17,01,36,9.60
2016,06,17,01,37,9.60
2016,06,17,01,38,9.50
2016,06,17,01,39,9.50
2016,06,17,01,40,9.40
2016,06,17,01,41,9.30
2016,06,17,01,42,9.20
2016,06,17,01,43,9.20
2016,06,17,01,44,9.10
2016,06,17,01,45,9.10
2016,06,17,01,46,9.00
2016,06,17,01,47,9.00
2016,06,17,01,48,8.90
2016,06,17,01,49,8.90
2016,06,17,01,50,8.90
2016,06,17,01,51,8.90
2016,06,17,01,52,8.90
2016,06,17,01,53,8.90
2016,06,17,01,54,8.90
2016,06,17,01,55,8.90
2016,06,17,01,56,8.90
2016,06,17,01,57,8.90
2016,06,17,01,58,8.80
2016,06,17,01,59,8.80
2016,06,17,02,00,8.70
2016,06,17,02,01,8.70
2016,06,17,02,02,8.70
2016,06,17,02,03,8.60
2016,06,17,02,04,8.60
2016,06,17,02,05,8.60
2016,06,17,02,06,8.60
2016,06,17,02,07,8.60
2016,06,17,02,08,8.60
2016,06,17,02,09,8.60
2016,06,17,02,10,8.60
2016,06,17,02,11,8.60
2016,06,17,02,12,8.60
2016,06,17,02,13,8.60
2016,06,17,02,14,8.60
2016,06,17,02,15,8.60
2016,06,17,02,16,8.50
2016,06,17,02,17,8.50
2016,06,17,02,18,8.50
2016,06,17,02,19,8.50
2016,06,17,02,20,8.50
2016,06,17,02,21,8.50
2016,06,17,02,22,8.50
2016,06,17,02,23,8.50
2016,06,17,02,24,8.50
2016,06,17,02,25,8.50
2016,06,17,02,26,8.40
2016,06,17,02,27,8.40
2016,06,17,02,28,8.40
2016,06,17,02,29,8.40
2016,06,17,02,30,8.40
2016,06,17,02,31,8.40
2016,06,17,02,32,8.40
2016,06,17,02,33,8.40
2016,06,17,02,34,8.40
2016,06,17,02,35,8.40
2016,06,17,02,36,8.40
2016,06,17,02,37,8.40
2016,06,17,02,38,8.40
2016,06,17,02,39,8.40
2016,06,17,02,40,8.40
2016,06,17,02,41,8.40
2016,06,17,02,42,8.40
2016,06,17,02,43,8.30
2016,06,17,02,44,8.30
2016,06,17,02,45,8.30
2016,06,17,02,46,8.30
2016,06,17,02,47,8.30
2016,06,17,02,48,8.30
2016,06,17,02,49,8.20
2016,06,17,02,50,8.20
2016,06,17,02,51,8.20
2016,06,17,02,52,8.20
2016,06,17,02,53,8.20
2016,06,17,02,54,8.20
2016,06,17,02,55,8.20
2016,06,17,02,56,8.20
2016,06,17,02,57,8.10
2016,06,17,02,58,8.10
2016,06,17,02,59,8.10
2016,06,17,03,00,8.10
2016,06,17,03,01,8.10
2016,06,17,03,02,8.10
2016,06,17,03,03,8.10
2016,06,17,03,04,8.10
2016,06,17,03,05,8.10
2016,06,17,03,06,8.10
2016,06,17,03,07,8.00
2016,06,17,03,08,8.00
2016,06,17,03,09,8.00
2016,06,17,03,10,8.00
2016,06,17,03,11,8.00
2016,06,17,03,12,7.90
2016,06,17,03,13,7.90
2016,06,17,03,14,7.90
2016,06,17,03,15,7.90
2016,06,17,03,16,7.90
2016,06,17,03,17,7.90
2016,06,17,03,18,7.90
2016,06,17,03,19,7.90
2016,06,17,03,20,7.90
2016,06,17,03,21,7.90
2016,06,17,03,22,7.80
2016,06,17,03,23,7.80
2016,06,17,03,24,7.80
2016,06,17,03,25,7.80
2016,06,17,03,26,7.80
2016,06,17,03,27,7.80
2016,06,17,03,28,7.80
2016,06,17,03,29,7.80
2016,06,17,03,30,7.80
2016,06,17,03,31,7.80
2016,06,17,03,32,7.80
2016,06,17,03,33,7.80
2016,06,17,03,34,7.80
2016,06,17,03,35,7.80
2016,06,17,03,36,7.80
2016,06,17,03,37,7.80
2016,06,17,03,38,7.80
2016,06,17,03,39,7.80
2016,06,17,03,40,7.80
2016,06,17,03,41,7.70
2016,06,17,03,42,7.70
2016,06,17,03,43,7.70
2016,06,17,03,44,7.70
2016,06,17,03,45,7.70
2016,06,17,03,46,7.70
2016,06,17,03,47,7.70
2016,06,17,03,48,7.70
2016,06,17,03,49,7.70
2016,06,17,03,50,7.70
2016,06,17,03,51,7.60
2016,06,17,03,52,7.60
2016,06,17,03,53,7.60
2016,06,17,03,54,7.60
2016,06,17,03,55,7.60
2016,06,17,03,56,7.60
2016,06,17,03,57,7.50
2016,06,17,03,58,7.50
2016,06,17,03,59,7.50
2016,06,17,04,00,7.50
2016,06,17,04,01,7.50
2016,06,17,04,02,7.50
2016,06,17,04,03,7.60
2016,06,17,04,04,7.60
2016,06,17,04,05,7.50
2016,06,17,04,06,7.50
2016,06,17,04,07,7.50
2016,06,17,04,08,7.50
2016,06,17,04,09,7.40
2016,06,17,04,10,7.40
2016,06,17,04,11,7.40
2016,06,17,04,12,7.40
2016,06,17,04,13,7.40
2016,06,17,04,14,7.30
2016,06,17,04,15,7.30
2016,06,17,04,16,7.30
2016,06,17,04,17,7.20
2016,06,17,04,18,7.30
2016,06,17,04,19,7.20
2016,06,17,04,20,7.30
2016,06,17,04,21,7.30
2016,06,17,04,22,7.30
2016,06,17,04,23,7.30
2016,06,17,04,24,7.30
2016,06,17,04,25,7.30
2016,06,17,04,26,7.30
2016,06,17,04,27,7.30
2016,06,17,04,28,7.30
2016,06,17,04,29,7.30
2016,06,17,04,30,7.30
2016,06,17,04,31,7.30
2016,06,17,04,32,7.30
2016,06,17,04,33,7.30
2016,06,17,04,34,7.40
2016,06,17,04,35,7.30
2016,06,17,04,36,7.30
2016,06,17,04,37,7.30
2016,06,17,04,38,7.30
2016,06,17,04,39,7.40
2016,06,17,04,40,7.30
2016,06,17,04,41,7.30
2016,06,17,04,42,7.30
2016,06,17,04,43,7.30
2016,06,17,04,44,7.30
2016,06,17,04,45,7.40
2016,06,17,04,46,7.40
2016,06,17,04,47,7.40
2016,06,17,04,48,7.40
2016,06,17,04,49,7.40
2016,06,17,04,50,7.40
2016,06,17,04,51,7.40
2016,06,17,04,52,7.40
2016,06,17,04,53,7.40
2016,06,17,04,54,7.40
2016,06,17,04,55,7.30
2016,06,17,04,56,7.30
2016,06,17,04,57,7.30
2016,06,17,04,58,7.30
2016,06,17,04,59,7.30
2016,06,17,05,00,7.20
2016,06,17,05,01,7.20
2016,06,17,05,02,7.20
2016,06,17,05,03,7.20
2016,06,17,05,04,7.20
2016,06,17,05,05,7.20
2016,06,17,05,06,7.20
2016,06,17,05,07,7.20
2016,06,17,05,08,7.20
2016,06,17,05,09,7.20
2016,06,17,05,10,7.20
2016,06,17,05,11,7.20
2016,06,17,05,12,7.20
2016,06,17,05,13,7.10
2016,06,17,05,14,7.10
2016,06,17,05,15,7.10
2016,06,17,05,16,7.10
2016,06,17,05,17,7.00
2016,06,17,05,18,7.00
2016,06,17,05,19,7.00
2016,06,17,05,20,6.90
2016,06,17,05,21,6.90
2016,06,17,05,22,6.90
2016,06,17,05,23,6.90
2016,06,17,05,24,6.80
2016,06,17,05,25,6.80
2016,06,17,05,26,6.80
2016,06,17,05,27,6.80
2016,06,17,05,28,6.80
2016,06,17,05,29,6.80
2016,06,17,05,30,6.80
2016,06,17,05,31,6.80
2016,06,17,05,32,6.80
2016,06,17,05,33,6.80
2016,06,17,05,34,6.80
2016,06,17,05,35,6.80
2016,06,17,05,36,6.80
2016,06,17,05,37,6.80
2016,06,17,05,38,6.80
2016,06,17,05,39,6.80
2016,06,17,05,40,6.80
2016,06,17,05,41,6.80
2016,06,17,05,42,6.80
2016,06,17,05,43,6.90
2016,06,17,05,44,6.90
2016,06,17,05,45,6.90
2016,06,17,05,46,7.00
2016,06,17,05,47,7.00
2016,06,17,05,48,7.10
2016,06,17,05,49,7.10
2016,06,17,05,50,7.10
2016,06,17,05,51,7.20
2016,06,17,05,52,7.20
2016,06,17,05,53,7.20
2016,06,17,05,54,7.30
2016,06,17,05,55,7.30
2016,06,17,05,56,7.30
2016,06,17,05,57,7.40
2016,06,17,05,58,7.50
2016,06,17,05,59,7.50
2016,06,17,06,00,7.50
2016,06,17,06,01,7.50
2016,06,17,06,02,7.50
2016,06,17,06,03,7.50
2016,06,17,06,04,7.60
2016,06,17,06,05,7.50
2016,06,17,06,06,7.50
2016,06,17,06,07,7.50
2016,06,17,06,08,7.50
2016,06,17,06,09,7.60
2016,06,17,06,10,7.60
2016,06,17,06,11,7.60
2016,06,17,06,12,7.70
2016,06,17,06,13,7.80
2016,06,17,06,14,7.90
2016,06,17,06,15,7.90
2016,06,17,06,16,8.00
2016,06,17,06,17,8.10
2016,06,17,06,18,8.20
2016,06,17,06,19,8.20
2016,06,17,06,20,8.30
2016,06,17,06,21,8.30
2016,06,17,06,22,8.40
2016,06,17,06,23,8.40
2016,06,17,06,24,8.50
2016,06,17,06,25,8.60
2016,06,17,06,26,8.60
2016,06,17,06,27,8.70
2016,06,17,06,28,8.80
2016,06,17,06,29,9.00
2016,06,17,06,30,9.10
2016,06,17,06,31,9.20
2016,06,17,06,32,9.30
2016,06,17,06,33,9.50
2016,06,17,06,34,9.60
2016,06,17,06,35,9.70
2016,06,17,06,36,9.80
2016,06,17,06,37,9.90
2016,06,17,06,38,9.90
2016,06,17,06,39,10.00
2016,06,17,06,40,10.10
2016,06,17,06,41,10.20
2016,06,17,06,42,10.30
2016,06,17,06,43,10.30
2016,06,17,06,44,10.40
2016,06,17,06,45,10.50
2016,06,17,06,46,10.60
2016,06,17,06,47,10.60
2016,06,17,06,48,10.70
2016,06,17,06,49,10.80
2016,06,17,06,50,10.80
2016,06,17,06,51,10.80
2016,06,17,06,52,10.90
2016,06,17,06,53,11.00
2016,06,17,06,54,11.00
2016,06,17,06,55,11.10
2016,06,17,06,56,11.10
2016,06,17,06,57,11.20
2016,06,17,06,58,11.30
2016,06,17,06,59,11.30
2016,06,17,07,00,11.40
2016,06,17,07,01,11.40
2016,06,17,07,02,11.40
2016,06,17,07,03,11.40
2016,06,17,07,04,11.40
2016,06,17,07,05,11.40
2016,06,17,07,06,11.40
2016,06,17,07,07,11.40
2016,06,17,07,08,11.40
2016,06,17,07,09,11.40
2016,06,17,07,10,11.40
2016,06,17,07,11,11.40
2016,06,17,07,12,11.40
2016,06,17,07,13,11.40
2016,06,17,07,14,11.50
2016,06,17,07,15,11.50
2016,06,17,07,16,11.50
2016,06,17,07,17,11.60
2016,06,17,07,18,11.60
2016,06,17,07,19,11.70
2016,06,17,07,20,11.70
2016,06,17,07,21,11.80
2016,06,17,07,22,11.80
2016,06,17,07,23,11.90
2016,06,17,07,24,11.90
2016,06,17,07,25,12.00
2016,06,17,07,26,12.10
2016,06,17,07,27,12.10
2016,06,17,07,28,12.20
2016,06,17,07,29,12.30
2016,06,17,07,30,12.40
2016,06,17,07,31,12.40
2016,06,17,07,32,12.50
2016,06,17,07,33,12.60
2016,06,17,07,34,12.70
2016,06,17,07,35,12.90
2016,06,17,07,36,13.00
2016,06,17,07,37,13.20
2016,06,17,07,38,13.30
2016,06,17,07,39,13.40
2016,06,17,07,40,13.60
2016,06,17,07,41,13.60
2016,06,17,07,42,13.70
2016,06,17,07,43,13.80
2016,06,17,07,44,13.80
2016,06,17,07,45,13.90
2016,06,17,07,46,13.90
2016,06,17,07,47,13.90
2016,06,17,07,48,13.90
2016,06,17,07,49,13.80
2016,06,17,07,50,13.80
2016,06,17,07,51,13.80
2016,06,17,07,52,13.80
2016,06,17,07,53,13.90
2016,06,17,07,54,13.90
2016,06,17,07,55,14.00
2016,06,17,07,56,14.10
2016,06,17,07,57,14.20
2016,06,17,07,58,14.20
2016,06,17,07,59,14.30
2016,06,17,08,00,14.30
2016,06,17,08,01,14.30
2016,06,17,08,02,14.30
2016,06,17,08,03,14.30
2016,06,17,08,04,14.30
2016,06,17,08,05,14.40
2016,06,17,08,06,14.50
2016,06,17,08,07,14.50
2016,06,17,08,08,14.60
2016,06,17,08,09,14.60
2016,06,17,08,10,14.60
2016,06,17,08,11,14.60
2016,06,17,08,12,14.60
2016,06,17,08,13,14.70
2016,06,17,08,14,14.70
2016,06,17,08,15,14.70
2016,06,17,08,16,14.70
2016,06,17,08,17,14.80
2016,06,17,08,18,14.80
2016,06,17,08,19,14.80
2016,06,17,08,20,14.80
2016,06,17,08,21,14.80
2016,06,17,08,22,14.80
2016,06,17,08,23,14.80
2016,06,17,08,24,14.90
2016,06,17,08,25,15.00
2016,06,17,08,26,15.00
2016,06,17,08,27,15.10
2016,06,17,08,28,15.20
2016,06,17,08,29,15.20
2016,06,17,08,30,15.20
2016,06,17,08,31,15.30
2016,06,17,08,32,15.30
2016,06,17,08,33,15.30
2016,06,17,08,34,15.30
2016,06,17,08,35,15.30
2016,06,17,08,36,15.30
2016,06,17,08,37,15.20
2016,06,17,08,38,15.20
2016,06,17,08,39,15.20
2016,06,17,08,40,15.20
2016,06,17,08,41,15.20
2016,06,17,08,42,15.20
2016,06,17,08,43,15.20
2016,06,17,08,44,15.10
2016,06,17,08,45,15.10
2016,06,17,08,46,15.20
2016,06,17,08,47,15.20
2016,06,17,08,48,15.10
2016,06,17,08,49,15.10
2016,06,17,08,50,15.10
2016,06,17,08,51,15.10
2016,06,17,08,52,15.20
2016,06,17,08,53,15.30
2016,06,17,08,54,15.30
2016,06,17,08,55,15.40
2016,06,17,08,56,15.50
2016,06,17,08,57,15.50
2016,06,17,08,58,15.60
2016,06,17,08,59,15.60
2016,06,17,09,00,15.70
2016,06,17,09,01,15.60
2016,06,17,09,02,15.60
2016,06,17,09,03,15.60
2016,06,17,09,04,15.60
2016,06,17,09,05,15.50
2016,06,17,09,06,15.40
2016,06,17,09,07,15.50
2016,06,17,09,08,15.60
2016,06,17,09,09,15.80
2016,06,17,09,10,15.90
2016,06,17,09,11,15.90
2016,06,17,09,12,15.90
2016,06,17,09,13,15.90
2016,06,17,09,14,15.90
2016,06,17,09,15,15.90
2016,06,17,09,16,15.90
2016,06,17,09,17,15.80
2016,06,17,09,18,15.80
2016,06,17,09,19,15.80
2016,06,17,09,20,15.80
2016,06,17,09,21,15.80
2016,06,17,09,22,15.80
2016,06,17,09,23,15.90
2016,06,17,09,24,16.00
2016,06,17,09,25,16.00
2016,06,17,09,26,15.90
2016,06,17,09,27,15.90
2016,06,17,09,28,15.90
2016,06,17,09,29,15.90
2016,06,17,09,30,15.90
2016,06,17,09,31,15.90
2016,06,17,09,32,15.90
2016,06,17,09,33,15.90
2016,06,17,09,34,15.90
2016,06,17,09,35,15.90
2016,06,17,09,36,15.90
2016,06,17,09,37,15.90
2016,06,17,09,38,15.90
2016,06,17,09,39,15.90
2016,06,17,09,40,15.90
2016,06,17,09,41,15.90
2016,06,17,09,42,15.90
2016,06,17,09,43,16.00
2016,06,17,09,44,16.00
2016,06,17,09,45,16.00
2016,06,17,09,46,16.10
2016,06,17,09,47,16.20
2016,06,17,09,48,16.20
2016,06,17,09,49,16.30
2016,06,17,09,50,16.40
2016,06,17,09,51,16.40
2016,06,17,09,52,16.30
2016,06,17,09,53,16.20
2016,06,17,09,54,16.10
2016,06,17,09,55,16.10
2016,06,17,09,56,16.10
2016,06,17,09,57,16.10
2016,06,17,09,58,16.10
2016,06,17,09,59,16.10
2016,06,17,10,00,16.10
2016,06,17,10,01,16.10
2016,06,17,10,02,16.10
2016,06,17,10,03,16.10
2016,06,17,10,04,15.90
2016,06,17,10,05,15.90
2016,06,17,10,06,15.80
2016,06,17,10,07,15.90
2016,06,17,10,08,16.00
2016,06,17,10,09,16.10
2016,06,17,10,10,16.20
2016,06,17,10,11,16.30
2016,06,17,10,12,16.30
2016,06,17,10,13,16.50
2016,06,17,10,14,16.50
2016,06,17,10,15,16.50
2016,06,17,10,16,16.50
2016,06,17,10,17,16.40
2016,06,17,10,18,16.30
2016,06,17,10,19,16.20
2016,06,17,10,20,16.20
2016,06,17,10,21,16.20
2016,06,17,10,22,16.20
2016,06,17,10,23,16.20
2016,06,17,10,24,16.30
2016,06,17,10,25,16.40
2016,06,17,10,26,16.40
2016,06,17,10,27,16.60
2016,06,17,10,28,16.70
2016,06,17,10,29,16.70
2016,06,17,10,30,16.70
2016,06,17,10,31,16.60
2016,06,17,10,32,16.50
2016,06,17,10,33,16.40
2016,06,17,10,34,16.20
2016,06,17,10,35,16.20
2016,06,17,10,36,16.20
2016,06,17,10,37,16.20
2016,06,17,10,38,16.30
2016,06,17,10,39,16.40
2016,06,17,10,40,16.50
2016,06,17,10,41,16.60
2016,06,17,10,42,16.60
2016,06,17,10,43,16.70
2016,06,17,10,44,16.70
2016,06,17,10,45,16.70
2016,06,17,10,46,16.90
2016,06,17,10,47,16.90
2016,06,17,10,48,16.90
2016,06,17,10,49,16.90
2016,06,17,10,50,16.80
2016,06,17,10,51,16.70
2016,06,17,10,52,16.80
2016,06,17,10,53,16.90
2016,06,17,10,54,17.00
2016,06,17,10,55,17.00
2016,06,17,10,56,16.90
2016,06,17,10,57,16.90
2016,06,17,10,58,16.90
2016,06,17,10,59,16.90
2016,06,17,11,00,16.80
2016,06,17,11,01,16.80
2016,06,17,11,02,16.80
2016,06,17,11,03,16.80
2016,06,17,11,04,16.70
2016,06,17,11,05,16.60
2016,06,17,11,06,16.60
2016,06,17,11,07,16.60
2016,06,17,11,08,16.60
2016,06,17,11,09,16.60
2016,06,17,11,10,16.70
2016,06,17,11,11,16.80
2016,06,17,11,12,16.80
2016,06,17,11,13,16.80
2016,06,17,11,14,16.80
2016,06,17,11,15,16.80
2016,06,17,11,16,16.80
2016,06,17,11,17,16.70
2016,06,17,11,18,16.70
2016,06,17,11,19,16.80
2016,06,17,11,20,16.80
2016,06,17,11,21,16.80
2016,06,17,11,22,16.90
2016,06,17,11,23,16.90
2016,06,17,11,24,17.00
2016,06,17,11,25,17.10
2016,06,17,11,26,17.20
2016,06,17,11,27,17.20
2016,06,17,11,28,17.30
2016,06,17,11,29,17.30
2016,06,17,11,30,17.30
2016,06,17,11,31,17.30
2016,06,17,11,32,17.30
2016,06,17,11,33,17.30
2016,06,17,11,34,17.40
2016,06,17,11,35,17.40
2016,06,17,11,36,17.50
2016,06,17,11,37,17.50
2016,06,17,11,38,17.50
2016,06,17,11,39,17.50
2016,06,17,11,40,17.50
2016,06,17,11,41,17.50
2016,06,17,11,42,17.50
2016,06,17,11,43,17.50
2016,06,17,11,44,17.60
2016,06,17,11,45,17.60
2016,06,17,11,46,17.60
2016,06,17,11,47,17.50
2016,06,17,11,48,17.60
2016,06,17,11,49,17.70
2016,06,17,11,50,17.70
2016,06,17,11,51,17.60
2016,06,17,11,52,17.40
2016,06,17,11,53,17.30
2016,06,17,11,54,17.30
2016,06,17,11,55,17.30
2016,06,17,11,56,17.30
2016,06,17,11,57,17.50
2016,06,17,11,58,17.60
2016,06,17,11,59,17.60
2016,06,17,12,00,17.60
2016,06,17,12,01,17.50
2016,06,17,12,02,17.40
2016,06,17,12,03,17.30
2016,06,17,12,04,17.40
2016,06,17,12,05,17.60
2016,06,17,12,06,17.70
2016,06,17,12,07,17.80
2016,06,17,12,08,18.00
2016,06,17,12,09,18.10
2016,06,17,12,10,18.00
2016,06,17,12,11,17.80
2016,06,17,12,12,17.80
2016,06,17,12,13,17.70
2016,06,17,12,14,17.60
2016,06,17,12,15,17.40
2016,06,17,12,16,17.30
2016,06,17,12,17,17.20
2016,06,17,12,18,17.30
2016,06,17,12,19,17.60
2016,06,17,12,20,17.80
2016,06,17,12,21,18.00
2016,06,17,12,22,18.10
2016,06,17,12,23,18.20
2016,06,17,12,24,18.30
2016,06,17,12,25,18.30
2016,06,17,12,26,18.20
2016,06,17,12,27,18.00
2016,06,17,12,28,17.90
2016,06,17,12,29,18.00
2016,06,17,12,30,18.00
2016,06,17,12,31,17.90
2016,06,17,12,32,18.00
2016,06,17,12,33,18.10
2016,06,17,12,34,18.20
2016,06,17,12,35,18.30
2016,06,17,12,36,18.40
2016,06,17,12,37,18.40
2016,06,17,12,38,18.20
2016,06,17,12,39,18.20
2016,06,17,12,40,18.30
2016,06,17,12,41,18.30
2016,06,17,12,42,18.30
2016,06,17,12,43,18.20
2016,06,17,12,44,18.10
2016,06,17,12,45,18.00
2016,06,17,12,46,17.90
2016,06,17,12,47,17.90
2016,06,17,12,48,17.90
2016,06,17,12,49,18.00
2016,06,17,12,50,18.00
2016,06,17,12,51,18.00
2016,06,17,12,52,18.10
2016,06,17,12,53,18.10
2016,06,17,12,54,18.30
2016,06,17,12,55,18.40
2016,06,17,12,56,18.60
2016,06,17,12,57,18.70
2016,06,17,12,58,18.70
2016,06,17,12,59,18.50
2016,06,17,13,00,18.40
2016,06,17,13,01,18.50
2016,06,17,13,02,18.60
2016,06,17,13,03,18.70
2016,06,17,13,04,18.80
2016,06,17,13,05,18.90
2016,06,17,13,06,18.80
2016,06,17,13,07,18.70
2016,06,17,13,08,18.60
2016,06,17,13,09,18.50
2016,06,17,13,10,18.50
2016,06,17,13,11,18.60
2016,06,17,13,12,18.60
2016,06,17,13,13,18.70
2016,06,17,13,14,18.70
2016,06,17,13,15,18.80
2016,06,17,13,16,18.80
2016,06,17,13,17,18.80
2016,06,17,13,18,18.70
2016,06,17,13,19,18.70
2016,06,17,13,20,18.70
2016,06,17,13,21,18.90
2016,06,17,13,22,19.00
2016,06,17,13,23,19.20
2016,06,17,13,24,19.30
2016,06,17,13,25,19.40
2016,06,17,13,26,19.40
2016,06,17,13,27,19.30
2016,06,17,13,28,19.30
2016,06,17,13,29,19.30
2016,06,17,13,30,19.30
2016,06,17,13,31,19.40
2016,06,17,13,32,19.50
2016,06,17,13,33,19.50
2016,06,17,13,34,19.40
2016,06,17,13,35,19.30
2016,06,17,13,36,19.30
2016,06,17,13,37,19.40
2016,06,17,13,38,19.40
2016,06,17,13,39,19.30
2016,06,17,13,40,19.30
2016,06,17,13,41,19.30
2016,06,17,13,42,19.30
2016,06,17,13,43,19.30
2016,06,17,13,44,19.30
2016,06,17,13,45,19.30
2016,06,17,13,46,19.20
2016,06,17,13,47,19.20
2016,06,17,13,48,19.20
2016,06,17,13,49,19.30
2016,06,17,13,50,19.30
2016,06,17,13,51,19.40
2016,06,17,13,52,19.50
2016,06,17,13,53,19.60
2016,06,17,13,54,19.60
2016,06,17,13,55,19.60
2016,06,17,13,56,19.80
2016,06,17,13,57,19.90
2016,06,17,13,58,20.00
2016,06,17,13,59,20.20
2016,06,17,14,00,20.20
2016,06,17,14,01,20.20
2016,06,17,14,02,20.30
2016,06,17,14,03,20.30
2016,06,17,14,04,20.20
2016,06,17,14,05,20.10
2016,06,17,14,06,20.10
2016,06,17,14,07,20.20
2016,06,17,14,08,20.20
2016,06,17,14,09,20.10
2016,06,17,14,10,20.10
2016,06,17,14,11,20.20
2016,06,17,14,12,20.30
2016,06,17,14,13,20.40
2016,06,17,14,14,20.50
2016,06,17,14,15,20.50
2016,06,17,14,16,20.60
2016,06,17,14,17,20.50
2016,06,17,14,18,20.30
2016,06,17,14,19,20.00
2016,06,17,14,20,19.80
2016,06,17,14,21,19.90
2016,06,17,14,22,20.00
2016,06,17,14,23,19.90
2016,06,17,14,24,19.90
2016,06,17,14,25,19.80
2016,06,17,14,26,19.80
2016,06,17,14,27,19.80
2016,06,17,14,28,19.80
2016,06,17,14,29,20.00
2016,06,17,14,30,20.10
2016,06,17,14,31,20.20
2016,06,17,14,32,20.20
2016,06,17,14,33,20.20
2016,06,17,14,34,20.20
2016,06,17,14,35,20.30
2016,06,17,14,36,20.30
2016,06,17,14,37,20.30
2016,06,17,14,38,20.30
2016,06,17,14,39,20.30
2016,06,17,14,40,20.20
2016,06,17,14,41,20.30
2016,06,17,14,42,20.10
2016,06,17,14,43,20.00
2016,06,17,14,44,19.90
2016,06,17,14,45,19.80
2016,06,17,14,46,19.70
2016,06,17,14,47,19.60
2016,06,17,14,48,19.60
2016,06,17,14,49,19.60
2016,06,17,14,50,19.70
2016,06,17,14,51,19.80
2016,06,17,14,52,19.90
2016,06,17,14,53,19.90
2016,06,17,14,54,19.90
2016,06,17,14,55,19.80
2016,06,17,14,56,19.70
2016,06,17,14,57,19.80
2016,06,17,14,58,19.80
2016,06,17,14,59,19.90
2016,06,17,15,00,20.00
2016,06,17,15,01,20.10
2016,06,17,15,02,20.30
2016,06,17,15,03,20.30
2016,06,17,15,04,20.30
2016,06,17,15,05,20.30
2016,06,17,15,06,20.20
2016,06,17,15,07,20.10
2016,06,17,15,08,20.10
2016,06,17,15,09,20.10
2016,06,17,15,10,20.20
2016,06,17,15,11,20.30
2016,06,17,15,12,20.30
2016,06,17,15,13,20.40
2016,06,17,15,14,20.50
2016,06,17,15,15,20.60
2016,06,17,15,16,20.60
2016,06,17,15,17,20.70
2016,06,17,15,18,20.70
2016,06,17,15,19,20.60
2016,06,17,15,20,20.60
2016,06,17,15,21,20.60
2016,06,17,15,22,20.60
2016,06,17,15,23,20.60
2016,06,17,15,24,20.60
2016,06,17,15,25,20.60
2016,06,17,15,26,20.40
2016,06,17,15,27,20.30
2016,06,17,15,28,20.10
2016,06,17,15,29,20.00
2016,06,17,15,30,19.90
2016,06,17,15,31,19.90
2016,06,17,15,32,19.90
2016,06,17,15,33,20.00
2016,06,17,15,34,20.20
2016,06,17,15,35,20.10
2016,06,17,15,36,20.10
2016,06,17,15,37,20.10
2016,06,17,15,38,20.10
2016,06,17,15,39,20.10
2016,06,17,15,40,20.10
2016,06,17,15,41,20.00
2016,06,17,15,42,20.00
2016,06,17,15,43,19.90
2016,06,17,15,44,19.90
2016,06,17,15,45,19.90
2016,06,17,15,46,19.90
2016,06,17,15,47,20.00
2016,06,17,15,48,20.10
2016,06,17,15,49,20.20
2016,06,17,15,50,20.30
2016,06,17,15,51,20.40
2016,06,17,15,52,20.40
2016,06,17,15,53,20.50
2016,06,17,15,54,20.60
2016,06,17,15,55,20.70
2016,06,17,15,56,20.70
2016,06,17,15,57,20.70
2016,06,17,15,58,20.50
2016,06,17,15,59,20.40
2016,06,17,16,00,20.20
2016,06,17,16,01,20.10
2016,06,17,16,02,20.10
2016,06,17,16,03,20.10
2016,06,17,16,04,20.10
2016,06,17,16,05,20.00
2016,06,17,16,06,20.00
2016,06,17,16,07,20.00
2016,06,17,16,08,20.00
2016,06,17,16,09,19.90
2016,06,17,16,10,19.90
2016,06,17,16,11,20.00
2016,06,17,16,12,20.10
2016,06,17,16,13,20.10
2016,06,17,16,14,20.20
2016,06,17,16,15,20.20
2016,06,17,16,16,20.30
2016,06,17,16,17,20.40
2016,06,17,16,18,20.40
2016,06,17,16,19,20.50
2016,06,17,16,20,20.50
2016,06,17,16,21,20.50
2016,06,17,16,22,20.60
2016,06,17,16,23,20.40
2016,06,17,16,24,20.30
2016,06,17,16,25,20.20
2016,06,17,16,26,20.10
2016,06,17,16,27,20.00
2016,06,17,16,28,19.90
2016,06,17,16,29,19.90
2016,06,17,16,30,20.00
2016,06,17,16,31,20.10
2016,06,17,16,32,20.00
2016,06,17,16,33,20.00
2016,06,17,16,34,20.10
2016,06,17,16,35,20.10
2016,06,17,16,36,20.00
2016,06,17,16,37,20.00
2016,06,17,16,38,20.00
2016,06,17,16,39,20.00
2016,06,17,16,40,19.90
2016,06,17,16,41,19.90
2016,06,17,16,42,19.80
2016,06,17,16,43,19.80
2016,06,17,16,44,19.80
2016,06,17,16,45,19.80
2016,06,17,16,46,19.80
2016,06,17,16,47,19.80
2016,06,17,16,48,19.80
2016,06,17,16,49,19.80
2016,06,17,16,50,19.80
2016,06,17,16,51,19.80
2016,06,17,16,52,19.80
2016,06,17,16,53,19.70
2016,06,17,16,54,19.70
2016,06,17,16,55,19.70
2016,06,17,16,56,19.70
2016,06,17,16,57,19.70
2016,06,17,16,58,19.70
2016,06,17,16,59,19.70
2016,06,17,17,00,19.70
2016,06,17,17,01,19.70
2016,06,17,17,02,19.70
2016,06,17,17,03,19.70
2016,06,17,17,04,19.70
2016,06,17,17,05,19.70
2016,06,17,17,06,19.70
2016,06,17,17,07,19.70
2016,06,17,17,08,19.70
2016,06,17,17,09,19.80
2016,06,17,17,10,19.80
2016,06,17,17,11,19.80
2016,06,17,17,12,19.90
2016,06,17,17,13,20.00
2016,06,17,17,14,20.10
2016,06,17,17,15,20.20
2016,06,17,17,16,20.20
2016,06,17,17,17,20.30
2016,06,17,17,18,20.30
2016,06,17,17,19,20.40
2016,06,17,17,20,20.40
2016,06,17,17,21,20.30
2016,06,17,17,22,20.30
2016,06,17,17,23,20.30
2016,06,17,17,24,20.30
2016,06,17,17,25,20.20
2016,06,17,17,26,20.20
2016,06,17,17,27,20.10
2016,06,17,17,28,20.10
2016,06,17,17,29,20.10
2016,06,17,17,30,20.00
2016,06,17,17,31,19.90
2016,06,17,17,32,19.80
2016,06,17,17,33,19.70